QPF
0.01 0.01 0.01 0.00 0.00 0.00 0.00 0.01 0.02 0.02 0.02 0.02 0.02 0.02 0.02 0.03 0.02 0.01 0.01 0.03 0.04 0.04 0.05 0.05 0.05 0.05 0.05 0.05 0.04 0.03 0.02 0.03 0.04 0.03 0.03 0.03 0.04 0.04 0.03 0.03 0.02 0.02 0.01
0.01 0.01 0.01 0.01 0.01 0.00 0.01 0.01 0.02 0.02 0.03 0.03 0.03 0.03 0.04 0.03 0.02 0.02 0.02 0.03 0.03 0.05 0.06 0.08 0.08 0.07 0.06 0.07 0.06 0.07 0.08 0.09 0.08 0.05 0.04 0.05 0.05 0.04 0.03 0.03 0.03 0.02 0.01
0.01 0.01 0.02 0.01 0.01 0.01 0.01 0.01 0.02 0.02 0.04 0.04 0.04 0.05 0.05 0.05 0.03 0.03 0.04 0.04 0.04 0.05 0.07 0.09 0.09 0.08 0.08 0.09 0.09 0.10 0.10 0.08 0.06 0.06 0.05 0.04 0.04 0.03 0.03 0.03 0.04 0.03 0.03
0.02 0.03 0.03 0.02 0.01 0.01 0.01 0.02 0.02 0.03 0.03 0.03 0.04 0.05 0.06 0.06 0.06 0.05 0.05 0.04 0.04 0.04 0.07 0.11 0.11 0.09 0.08 0.08 0.10 0.09 0.09 0.08 0.06 0.05 0.06 0.05 0.05 0.04 0.03 0.03 0.04 0.05 0.04
0.03 0.03 0.03 0.02 0.02 0.02 0.02 0.02 0.03 0.03 0.02 0.02 0.03 0.04 0.06 0.07 0.06 0.05 0.04 0.03 0.03 0.04 0.05 0.07 0.10 0.09 0.09 0.09 0.11 0.10 0.09 0.08 0.07 0.06 0.07 0.07 0.06 0.05 0.04 0.05 0.04 0.04 0.05
0.02 0.02 0.02 0.01 0.02 0.02 0.02 0.02 0.03 0.03 0.03 0.03 0.02 0.03 0.05 0.07 0.06 0.05 0.03 0.02 0.03 0.04 0.03 0.04 0.05 0.06 0.09 0.09 0.09 0.09 0.10 0.10 0.09 0.08 0.08 0.08 0.08 0.06 0.05 0.06 0.06 0.05 0.04
0.02 0.03 0.02 0.02 0.01 0.02 0.03 0.03 0.02 0.03 0.03 0.02 0.01 0.02 0.03 0.03 0.03 0.02 0.03 0.03 0.04 0.04 0.04 0.03 0.03 0.05 0.06 0.07 0.08 0.11 0.12 0.12 0.11 0.09 0.08 0.08 0.09 0.08 0.07 0.06 0.06 0.06 0.06
0.04 0.03 0.03 0.03 0.03 0.03 0.02 0.02 0.01 0.02 0.02 0.03 0.02 0.03 0.02 0.02 0.02 0.01 0.02 0.03 0.04 0.04 0.04 0.03 0.02 0.03 0.03 0.03 0.04 0.08 0.11 0.13 0.14 0.12 0.10 0.08 0.08 0.08 0.07 0.07 0.07 0.07 0.06
0.06 0.04 0.03 0.03 0.03 0.03 0.02 0.02 0.01 0.02 0.02 0.03 0.02 0.01 0.00 0.00 0.01 0.01 0.01 0.02 0.03 0.02 0.02 0.02 0.03 0.03 0.02 0.02 0.03 0.04 0.06 0.07 0.08 0.10 0.09 0.08 0.07 0.07 0.07 0.07 0.07 0.06 0.05
0.07 0.06 0.05 0.04 0.03 0.03 0.04 0.03 0.02 0.01 0.02 0.03 0.02 0.01 0.00 0.00 0.00 0.01 0.01 0.01 0.02 0.02 0.02 0.02 0.04 0.04 0.02 0.02 0.02 0.02 0.03 0.03 0.04 0.06 0.09 0.09 0.08 0.07 0.06 0.07 0.07 0.07 0.07
0.06 0.06 0.05 0.04 0.03 0.03 0.03 0.02 0.01 0.02 0.02 0.03 0.02 0.01 0.01 0.01 0.00 0.00 0.00 0.00 0.00 0.01 0.01 0.01 0.02 0.02 0.02 0.01 0.01 0.01 0.03 0.04 0.03 0.04 0.05 0.07 0.08 0.08 0.08 0.09 0.09 0.10 0.11
0.03 0.04 0.04 0.02 0.02 0.03 0.02 0.01 0.01 0.02 0.03 0.03 0.02 0.01 0.01 0.01 0.00 0.00 0.00 0.00 0.00 0.00 0.00 0.00 0.00 0.00 0.01 0.01 0.01 0.01 0.01 0.02 0.03 0.03 0.04 0.03 0.04 0.05 0.05 0.06 0.08 0.10 0.11
0.01 0.01 0.02 0.02 0.02 0.02 0.03 0.03 0.02 0.01 0.02 0.02 0.01 0.01 0.01 0.00 0.00 0.00 0.00 0.00 0.00 0.00 0.00 0.00 0.00 0.00 0.01 0.01 0.01 0.01 0.00 0.01 0.02 0.04 0.04 0.02 0.03 0.04 0.05 0.05 0.06 0.07 0.07
0.01 0.01 0.02 0.02 0.01 0.01 0.02 0.02 0.02 0.02 0.01 0.01 0.01 0.01 0.01 0.00 0.00 0.00 0.00 0.00 0.00 0.00 0.00 0.00 0.00 0.00 0.00 0.00 0.01 0.01 0.00 0.00 0.01 0.03 0.04 0.03 0.02 0.02 0.03 0.03 0.03 0.03 0.03
0.02 0.01 0.02 0.02 0.03 0.02 0.03 0.02 0.03 0.03 0.03 0.02 0.01 0.01 0.01 0.00 0.00 0.00 0.00 0.00 0.00 0.00 0.00 0.00 0.00 0.00 0.00 0.00 0.00 0.00 0.00 0.01 0.01 0.01 0.03 0.03 0.02 0.01 0.01 0.02 0.02 0.03 0.02
0.04 0.02 0.02 0.03 0.03 0.03 0.03 0.03 0.03 0.03 0.04 0.03 0.02 0.01 0.01 0.00 0.00 0.00 0.00 0.00 0.00 0.00 0.00 0.00 0.00 0.00 0.00 0.00 0.00 0.00 0.00 0.01 0.01 0.01 0.01 0.01 0.01 0.01 0.01 0.01 0.01 0.02 0.02
0.04 0.04 0.03 0.03 0.04 0.04 0.04 0.03 0.03 0.02 0.02 0.01 0.01 0.01 0.01 0.00 0.00 0.00 0.00 0.00 0.00 0.00 0.00 0.00 0.00 0.00 0.00 0.00 0.00 0.00 0.01 0.01 0.00 0.00 0.00 0.00 0.00 0.00 0.00 0.00 0.01 0.01 0.01
0.03 0.03 0.03 0.04 0.03 0.03 0.03 0.03 0.03 0.02 0.01 0.01 0.01 0.01 0.01 0.01 0.00 0.00 0.00 0.00 0.01 0.00 0.00 0.00 0.00 0.00 0.00 0.00 0.00 0.00 0.00 0.00 0.00 0.00 0.00 0.00 0.00 0.00 0.00 0.00 0.00 0.00 0.00
0.04 0.05 0.05 0.04 0.03 0.03 0.03 0.02 0.02 0.02 0.02 0.01 0.01 0.01 0.01 0.01 0.00 0.00 0.00 0.00 0.00 0.01 0.00 0.00 0.00 0.00 0.00 0.00 0.00 0.00 0.00 0.00 0.00 0.00 0.00 0.00 0.00 0.01 0.01 0.00 0.00 0.00 0.00
0.06 0.06 0.05 0.05 0.05 0.04 0.03 0.03 0.03 0.02 0.02 0.02 0.02 0.02 0.02 0.01 0.01 0.00 0.00 0.00 0.00 0.01 0.00 0.00 0.00 0.00 0.00 0.00 0.00 0.00 0.00 0.00 0.00 0.00 0.01 0.02 0.02 0.01 0.01 0.01 0.01 0.01 0.00
0.07 0.08 0.07 0.07 0.06 0.06 0.05 0.04 0.03 0.03 0.02 0.02 0.02 0.02 0.02 0.02 0.01 0.01 0.01 0.00 0.01 0.01 0.00 0.00 0.00 0.00 0.00 0.00 0.00 0.00 0.00 0.00 0.00 0.00 0.00 0.00 0.01 0.01 0.01 0.01 0.00 0.00 0.00
0.07 0.08 0.07 0.06 0.05 0.04 0.04 0.04 0.04 0.03 0.02 0.02 0.02 0.02 0.02 0.02 0.02 0.01 0.01 0.01 0.01 0.01 0.01 0.00 0.00 0.00 0.00 0.00 0.00 0.00 0.00 0.00 0.00 0.00 0.00 0.00 0.00 0.00 0.00 0.00 0.00 0.00 0.00
0.04 0.04 0.04 0.03 0.03 0.03 0.03 0.04 0.03 0.03 0.03 0.02 0.02 0.02 0.02 0.03 0.03 0.02 0.01 0.01 0.01 0.01 0.01 0.01 0.00 0.00 0.00 0.00 0.00 0.00 0.00 0.00 0.00 0.00 0.00 0.00 0.00 0.00 0.00 0.00 0.00 0.00 0.00
0.03 0.02 0.03 0.02 0.03 0.03 0.02 0.02 0.03 0.03 0.03 0.02 0.02 0.02 0.02 0.03 0.03 0.03 0.02 0.02 0.02 0.01 0.01 0.00 0.00 0.00 0.00 0.00 0.01 0.00 0.00 0.00 0.00 0.00 0.00 0.00 0.00 0.00 0.00 0.00 0.00 0.00 0.00
0.04 0.03 0.02 0.02 0.02 0.03 0.03 0.04 0.03 0.03 0.03 0.03 0.03 0.02 0.01 0.02 0.02 0.01 0.01 0.01 0.01 0.01 0.01 0.01 0.00 0.01 0.01 0.01 0.01 0.01 0.01 0.01 0.00 0.00 0.00 0.00 0.00 0.00 0.00 0.00 0.01 0.01 0.01
0.03 0.03 0.03 0.03 0.03 0.02 0.02 0.03 0.03 0.03 0.04 0.04 0.03 0.03 0.02 0.01 0.01 0.01 0.00 0.00 0.01 0.01 0.01 0.01 0.01 0.01 0.01 0.01 0.01 0.01 0.01 0.01 0.00 0.00 0.00 0.01 0.01 0.01 0.01 0.01 0.00 0.00 0.00
MSLP
1016.23 1016.45 1016.60 1016.68 1016.71 1016.72 1016.75 1016.80 1016.89 1017.01 1017.17 1017.34 1017.52 1017.69 1017.85 1018.01 1018.18 1018.37 1018.58 1018.81 1019.06 1019.31 1019.55 1019.77 1019.96 1020.11 1020.24 1020.35 1020.45 1020.56 1020.68 1020.82 1020.98 1021.15 1021.34 1021.52 1021.71 1021.88 1022.04 1022.18 1022.29 1022.39 1022.46
1016.37 1016.60 1016.78 1016.90 1016.97 1017.03 1017.09 1017.17 1017.28 1017.41 1017.57 1017.74 1017.90 1018.06 1018.19 1018.32 1018.44 1018.58 1018.73 1018.91 1019.12 1019.35 1019.58 1019.80 1020.01 1020.18 1020.32 1020.43 1020.52 1020.61 1020.69 1020.80 1020.93 1021.08 1021.25 1021.44 1021.64 1021.84 1022.02 1022.17 1022.30 1022.39 1022.45
1016.40 1016.66 1016.88 1017.06 1017.21 1017.33 1017.45 1017.57 1017.70 1017.85 1018.01 1018.17 1018.32 1018.45 1018.56 1018.64 1018.72 1018.79 1018.88 1019.00 1019.15 1019.34 1019.56 1019.78 1019.99 1020.19 1020.35 1020.47 1020.55 1020.62 1020.67 1020.73 1020.82 1020.93 1021.09 1021.27 1021.47 1021.68 1021.88 1022.05 1022.19 1022.30 1022.37
1016.34 1016.62 1016.90 1017.15 1017.38 1017.59 1017.77 1017.94 1018.11 1018.27 1018.43 1018.58 1018.71 1018.82 1018.90 1018.94 1018.96 1018.98 1019.01 1019.06 1019.16 1019.31 1019.49 1019.71 1019.93 1020.14 1020.32 1020.45 1020.53 1020.58 1020.61 1020.63 1020.67 1020.74 1020.86 1021.02 1021.21 1021.42 1021.63 1021.82 1021.98 1022.10 1022.19
1016.21 1016.53 1016.86 1017.19 1017.50 1017.78 1018.03 1018.25 1018.44 1018.62 1018.77 1018.91 1019.03 1019.12 1019.17 1019.19 1019.17 1019.14 1019.12 1019.12 1019.17 1019.26 1019.42 1019.62 1019.84 1020.06 1020.25 1020.39 1020.48 1020.52 1020.52 1020.51 1020.51 1020.53 1020.61 1020.73 1020.90 1021.10 1021.31 1021.51 1021.69 1021.83 1021.93
1016.08 1016.41 1016.79 1017.19 1017.57 1017.92 1018.22 1018.48 1018.69 1018.87 1019.01 1019.14 1019.25 1019.33 1019.37 1019.38 1019.35 1019.30 1019.24 1019.20 1019.20 1019.25 1019.37 1019.54 1019.75 1019.96 1020.16 1020.32 1020.41 1020.45 1020.44 1020.40 1020.36 1020.35 1020.38 1020.47 1020.61 1020.78 1020.98 1021.18 1021.37 1021.52 1021.63
1015.98 1016.33 1016.74 1017.18 1017.61 1018.01 1018.35 1018.63 1018.84 1019.01 1019.15 1019.28 1019.38 1019.47 1019.53 1019.54 1019.52 1019.47 1019.39 1019.33 1019.29 1019.30 1019.37 1019.51 1019.69 1019.90 1020.09 1020.25 1020.35 1020.39 1020.38 1020.33 1020.27 1020.23 1020.23 1020.29 1020.39 1020.54 1020.72 1020.90 1021.08 1021.22 1021.34
1015.96 1016.30 1016.73 1017.19 1017.65 1018.07 1018.43 1018.70 1018.92 1019.07 1019.21 1019.33 1019.44 1019.55 1019.64 1019.69 1019.70 1019.67 1019.60 1019.52 1019.45 1019.43 1019.46 1019.55 1019.69 1019.87 1020.05 1020.21 1020.31 1020.37 1020.36 1020.32 1020.26 1020.21 1020.19 1020.22 1020.29 1020.41 1020.56 1020.72 1020.87 1021.00 1021.10
1016.00 1016.34 1016.76 1017.23 1017.70 1018.12 1018.47 1018.73 1018.92 1019.07 1019.19 1019.31 1019.45 1019.59 1019.72 1019.82 1019.88 1019.89 1019.84 1019.77 1019.69 1019.63 1019.61 1019.65 1019.75 1019.89 1020.04 1020.19 1020.30 1020.37 1020.38 1020.36 1020.31 1020.27 1020.25 1020.27 1020.33 1020.42 1020.53 1020.66 1020.78 1020.88 1020.95
1016.07 1016.41 1016.83 1017.29 1017.74 1018.15 1018.47 1018.72 1018.89 1019.01 1019.13 1019.25 1019.41 1019.58 1019.77 1019.93 1020.04 1020.09 1020.08 1020.02 1019.93 1019.85 1019.79 1019.79 1019.84 1019.93 1020.05 1020.18 1020.29 1020.36 1020.40 1020.41 1020.39 1020.37 1020.37 1020.39 1020.44 1020.52 1020.60 1020.69 1020.77 1020.83 1020.86
1016.13 1016.46 1016.87 1017.33 1017.76 1018.14 1018.45 1018.66 1018.81 1018.91 1019.02 1019.15 1019.32 1019.53 1019.76 1019.97 1020.13 1020.24 1020.26 1020.22 1020.14 1020.04 1019.96 1019.91 1019.91 1019.96 1020.05 1020.15 1020.25 1020.33 1020.38 1020.42 1020.44 1020.45 1020.47 1020.51 1020.56 1020.63 1020.69 1020.75 1020.79 1020.81 1020.79
1016.12 1016.46 1016.88 1017.31 1017.73 1018.09 1018.37 1018.56 1018.69 1018.78 1018.87 1019.01 1019.19 1019.41 1019.67 1019.92 1020.12 1020.26 1020.33 1020.32 1020.25 1020.15 1020.05 1019.97 1019.94 1019.95 1020.00 1020.07 1020.15 1020.23 1020.29 1020.34 1020.39 1020.43 1020.48 1020.54 1020.60 1020.66 1020.72 1020.75 1020.76 1020.73 1020.68
1016.02 1016.38 1016.80 1017.24 1017.65 1017.99 1018.25 1018.43 1018.54 1018.62 1018.70 1018.83 1019.01 1019.24 1019.50 1019.76 1019.99 1020.16 1020.25 1020.27 1020.23 1020.14 1020.05 1019.96 1019.91 1019.89 1019.91 1019.95 1020.00 1020.05 1020.11 1020.16 1020.21 1020.27 1020.33 1020.41 1020.48 1020.54 1020.59 1020.61 1020.59 1020.54 1020.46
1015.84 1016.22 1016.66 1017.10 1017.50 1017.85 1018.10 1018.27 1018.38 1018.45 1018.53 1018.65 1018.81 1019.02 1019.27 1019.53 1019.76 1019.94 1020.05 1020.10 1020.08 1020.03 1019.95 1019.88 1019.82 1019.79 1019.78 1019.78 1019.80 1019.82 1019.85 1019.87 1019.91 1019.96 1020.02 1020.10 1020.17 1020.23 1020.28 1020.29 1020.26 1020.19 1020.09
1015.59 1016.01 1016.46 1016.91 1017.33 1017.68 1017.94 1018.12 1018.24 1018.31 1018.39 1018.49 1018.63 1018.81 1019.03 1019.26 1019.47 1019.65 1019.77 1019.84 1019.85 1019.84 1019.80 1019.75 1019.71 1019.67 1019.65 1019.62 1019.59 1019.57 1019.54 1019.53 1019.52 1019.54 1019.58 1019.63 1019.69 1019.74 1019.77 1019.78 1019.74 1019.67 1019.57
1015.33 1015.77 1016.24 1016.70 1017.14 1017.50 1017.79 1017.99 1018.13 1018.22 1018.29 1018.38 1018.49 1018.64 1018.82 1019.00 1019.19 1019.34 1019.46 1019.55 1019.60 1019.62 1019.63 1019.62 1019.60 1019.58 1019.54 1019.49 1019.42 1019.34 1019.26 1019.18 1019.12 1019.08 1019.07 1019.08 1019.10 1019.13 1019.15 1019.13 1019.09 1019.02 1018.92
1015.07 1015.52 1016.00 1016.49 1016.93 1017.33 1017.64 1017.88 1018.04 1018.16 1018.24 1018.33 1018.42 1018.53 1018.66 1018.81 1018.95 1019.08 1019.19 1019.29 1019.36 1019.42 1019.47 1019.51 1019.53 1019.53 1019.49 1019.42 1019.32 1019.19 1019.05 1018.90 1018.76 1018.65 1018.57 1018.52 1018.50 1018.48 1018.46 1018.43 1018.37 1018.30 1018.20
1014.81 1015.26 1015.75 1016.24 1016.70 1017.12 1017.46 1017.74 1017.94 1018.09 1018.19 1018.28 1018.37 1018.46 1018.55 1018.66 1018.76 1018.86 1018.96 1019.06 1019.16 1019.25 1019.34 1019.42 1019.47 1019.50 1019.48 1019.41 1019.28 1019.12 1018.92 1018.71 1018.50 1018.32 1018.17 1018.05 1017.95 1017.88 1017.81 1017.74 1017.66 1017.57 1017.47
1014.51 1014.95 1015.43 1015.92 1016.39 1016.82 1017.20 1017.50 1017.74 1017.93 1018.06 1018.17 1018.26 1018.34 1018.42 1018.50 1018.57 1018.65 1018.74 1018.84 1018.95 1019.06 1019.18 1019.30 1019.39 1019.45 1019.45 1019.39 1019.27 1019.09 1018.86 1018.61 1018.35 1018.10 1017.88 1017.69 1017.52 1017.38 1017.25 1017.13 1017.01 1016.89 1016.78
1014.12 1014.54 1015.01 1015.48 1015.94 1016.38 1016.77 1017.10 1017.37 1017.59 1017.76 1017.90 1018.01 1018.10 1018.18 1018.25 1018.32 1018.39 1018.47 1018.56 1018.68 1018.81 1018.95 1019.10 1019.22 1019.31 1019.34 1019.31 1019.20 1019.03 1018.80 1018.54 1018.25 1017.97 1017.69 1017.43 1017.20 1016.99 1016.80 1016.61 1016.44 1016.28 1016.14
1013.58 1013.98 1014.42 1014.87 1015.31 1015.73 1016.12 1016.46 1016.75 1017.00 1017.20 1017.37 1017.52 1017.64 1017.74 1017.83 1017.90 1017.98 1018.07 1018.17 1018.29 1018.43 1018.58 1018.74 1018.89 1019.01 1019.07 1019.08 1019.01 1018.87 1018.68 1018.43 1018.14 1017.85 1017.54 1017.25 1016.96 1016.69 1016.43 1016.18 1015.95 1015.74 1015.55
1012.89 1013.26 1013.66 1014.07 1014.49 1014.88 1015.25 1015.58 1015.87 1016.13 1016.36 1016.57 1016.75 1016.91 1017.06 1017.18 1017.29 1017.39 1017.49 1017.60 1017.73 1017.87 1018.03 1018.20 1018.36 1018.50 1018.60 1018.65 1018.63 1018.55 1018.40 1018.20 1017.95 1017.67 1017.37 1017.05 1016.73 1016.41 1016.10 1015.79 1015.50 1015.24 1015.01
1012.05 1012.39 1012.75 1013.13 1013.50 1013.85 1014.18 1014.49 1014.77 1015.03 1015.28 1015.52 1015.74 1015.95 1016.14 1016.32 1016.48 1016.62 1016.75 1016.88 1017.01 1017.16 1017.32 1017.48 1017.65 1017.80 1017.92 1018.00 1018.04 1018.01 1017.93 1017.79 1017.60 1017.36 1017.09 1016.78 1016.46 1016.11 1015.76 1015.41 1015.08 1014.77 1014.49
1011.11 1011.43 1011.76 1012.10 1012.42 1012.73 1013.02 1013.29 1013.54 1013.79 1014.05 1014.30 1014.57 1014.83 1015.08 1015.31 1015.53 1015.72 1015.89 1016.04 1016.19 1016.33 1016.48 1016.63 1016.78 1016.93 1017.07 1017.18 1017.25 1017.28 1017.27 1017.20 1017.07 1016.90 1016.68 1016.41 1016.10 1015.76 1015.40 1015.02 1014.66 1014.31 1013.99
1010.14 1010.44 1010.75 1011.05 1011.34 1011.60 1011.85 1012.08 1012.31 1012.54 1012.79 1013.07 1013.36 1013.66 1013.97 1014.26 1014.54 1014.78 1014.99 1015.17 1015.33 1015.47 1015.60 1015.73 1015.86 1015.99 1016.12 1016.24 1016.34 1016.41 1016.45 1016.45 1016.40 1016.29 1016.13 1015.92 1015.65 1015.34 1014.99 1014.62 1014.24 1013.88 1013.53
1009.17 1009.46 1009.75 1010.04 1010.30 1010.53 1010.75 1010.95 1011.15 1011.37 1011.62 1011.91 1012.22 1012.56 1012.91 1013.26 1013.58 1013.87 1014.12 1014.32 1014.49 1014.62 1014.74 1014.84 1014.94 1015.05 1015.16 1015.27 1015.38 1015.48 1015.56 1015.61 1015.63 1015.59 1015.50 1015.36 1015.15 1014.88 1014.57 1014.22 1013.86 1013.49 1013.13
Thickness
5741 5740 5739 5739 5739 5738 5738 5737 5737 5736 5736 5735 5735 5734 5732 5731 5730 5729 5727 5726 5725 5724 5723 5721 5720 5719 5717 5716 5715 5713 5712 5711 5709 5708 5706 5705 5704 5703 5702 5701 5700 5700 5699
5738 5738 5737 5737 5736 5736 5735 5735 5734 5734 5733 5733 5732 5731 5730 5728 5728 5727 5725 5724 5723 5722 5721 5720 5719 5717 5716 5714 5713 5712 5711 5709 5708 5706 5705 5704 5703 5702 5701 5700 5699 5698 5697
5736 5736 5735 5734 5734 5733 5733 5732 5732 5731 5730 5730 5729 5729 5727 5726 5725 5724 5723 5723 5721 5720 5719 5718 5717 5716 5715 5713 5712 5710 5709 5708 5706 5705 5704 5703 5701 5700 5699 5698 5697 5696 5696
5734 5733 5732 5732 5732 5731 5730 5730 5729 5728 5727 5726 5726 5725 5725 5724 5723 5722 5721 5721 5720 5719 5718 5717 5716 5715 5714 5712 5711 5709 5708 5706 5705 5704 5703 5701 5700 5699 5698 5697 5696 5695 5694
5732 5731 5730 5730 5729 5729 5728 5728 5726 5725 5724 5723 5723 5722 5722 5722 5721 5721 5720 5719 5718 5717 5716 5716 5715 5714 5712 5711 5710 5708 5707 5706 5704 5703 5702 5701 5699 5698 5697 5695 5695 5694 5693
5730 5730 5728 5728 5727 5727 5726 5725 5724 5723 5722 5721 5721 5719 5719 5719 5719 5719 5718 5717 5717 5716 5715 5714 5713 5712 5711 5709 5708 5707 5706 5705 5704 5702 5701 5700 5698 5697 5696 5695 5694 5693 5692
5728 5728 5727 5726 5725 5725 5724 5723 5722 5720 5718 5718 5716 5714 5715 5716 5716 5716 5716 5715 5715 5714 5713 5712 5711 5710 5709 5708 5707 5706 5705 5704 5703 5701 5700 5699 5698 5696 5695 5694 5693 5692 5691
5727 5726 5725 5724 5724 5723 5722 5721 5720 5718 5716 5716 5713 5709 5707 5708 5711 5714 5713 5713 5712 5712 5711 5710 5709 5708 5707 5706 5705 5704 5703 5703 5702 5700 5699 5698 5697 5696 5694 5693 5692 5691 5690
5725 5725 5724 5723 5722 5722 5721 5720 5720 5718 5714 5713 5713 5710 5704 5702 5705 5708 5710 5710 5710 5710 5709 5709 5708 5706 5705 5705 5704 5703 5702 5701 5700 5699 5698 5697 5696 5695 5694 5693 5692 5691 5690
5723 5722 5722 5722 5721 5720 5720 5719 5719 5718 5715 5711 5710 5711 5710 5708 5704 5702 5705 5707 5708 5708 5707 5707 5706 5705 5704 5703 5702 5702 5701 5700 5699 5698 5697 5696 5695 5694 5693 5692 5691 5690 5690
5720 5720 5720 5720 5719 5719 5718 5718 5717 5717 5715 5713 5711 5709 5707 5706 5706 5703 5700 5702 5704 5705 5706 5705 5704 5704 5703 5702 5701 5700 5699 5698 5697 5697 5696 5695 5694 5693 5692 5692 5691 5690 5690
5718 5718 5718 5718 5718 5717 5717 5717 5716 5715 5714 5713 5712 5711 5709 5707 5704 5703 5700 5699 5699 5702 5704 5704 5704 5703 5702 5701 5700 5699 5698 5697 5697 5696 5695 5695 5694 5693 5692 5691 5691 5690 5690
5716 5716 5717 5717 5716 5716 5716 5715 5714 5714 5713 5712 5711 5710 5710 5709 5708 5705 5702 5699 5698 5699 5701 5703 5703 5702 5702 5700 5700 5699 5698 5697 5696 5695 5695 5695 5694 5693 5691 5690 5690 5689 5688
5718 5717 5716 5716 5715 5715 5714 5713 5713 5712 5712 5712 5711 5710 5709 5709 5708 5707 5704 5700 5696 5695 5697 5700 5702 5702 5701 5700 5699 5698 5697 5696 5695 5694 5694 5693 5692 5691 5690 5689 5688 5687 5686
5718 5716 5715 5714 5714 5713 5713 5712 5711 5711 5711 5710 5710 5709 5708 5708 5707 5706 5705 5704 5699 5693 5693 5697 5699 5701 5700 5699 5698 5697 5695 5694 5693 5693 5692 5691 5691 5690 5689 5688 5687 5686 5685
5718 5716 5714 5713 5712 5712 5711 5710 5710 5709 5709 5708 5708 5707 5707 5706 5706 5705 5704 5702 5701 5698 5694 5696 5697 5698 5698 5698 5697 5695 5694 5693 5692 5692 5691 5690 5689 5689 5688 5687 5686 5685 5684
5716 5715 5713 5712 5711 5710 5710 5709 5708 5708 5707 5706 5706 5706 5705 5704 5703 5702 5702 5700 5699 5697 5694 5694 5694 5695 5696 5695 5694 5693 5693 5692 5691 5691 5690 5689 5688 5688 5687 5686 5685 5683 5682
5715 5714 5712 5711 5710 5709 5708 5708 5707 5706 5705 5704 5704 5704 5703 5702 5701 5700 5699 5698 5697 5696 5694 5692 5692 5693 5693 5692 5692 5691 5691 5691 5690 5690 5689 5688 5687 5686 5685 5684 5683 5682 5681
5714 5713 5712 5710 5709 5708 5707 5707 5706 5705 5704 5704 5703 5702 5701 5700 5699 5698 5697 5696 5695 5694 5692 5691 5689 5689 5689 5689 5689 5689 5688 5688 5688 5687 5687 5686 5685 5684 5683 5682 5681 5680 5679
5714 5712 5711 5710 5709 5708 5707 5705 5704 5704 5703 5702 5701 5700 5699 5698 5698 5696 5695 5694 5693 5691 5689 5688 5686 5685 5685 5684 5684 5684 5684 5684 5684 5684 5684 5683 5682 5681 5680 5680 5679 5677 5676
5714 5712 5711 5709 5708 5707 5706 5705 5703 5702 5701 5700 5699 5698 5698 5697 5696 5695 5694 5692 5691 5688 5686 5684 5683 5681 5681 5680 5680 5679 5679 5679 5679 5679 5679 5679 5678 5678 5677 5677 5675 5674 5673
5712 5710 5709 5708 5707 5707 5707 5705 5703 5701 5700 5698 5697 5696 5696 5695 5695 5694 5693 5692 5690 5687 5684 5682 5680 5678 5678 5677 5676 5675 5674 5673 5673 5675 5673 5674 5673 5673 5673 5672 5671 5670 5668
5710 5708 5708 5707 5706 5706 5705 5703 5702 5700 5698 5697 5695 5694 5694 5695 5693 5692 5691 5689 5687 5686 5684 5682 5680 5678 5677 5676 5674 5672 5670 5669 5669 5670 5667 5669 5669 5668 5668 5667 5666 5664 5663
5709 5707 5706 5705 5704 5704 5703 5701 5699 5697 5696 5695 5694 5693 5692 5691 5691 5689 5687 5686 5684 5683 5682 5680 5679 5678 5677 5675 5672 5670 5668 5665 5664 5663 5661 5661 5663 5663 5663 5662 5660 5658 5656
5708 5706 5705 5704 5702 5702 5701 5699 5697 5694 5693 5692 5692 5691 5690 5688 5688 5686 5683 5681 5680 5679 5678 5677 5676 5674 5673 5670 5667 5664 5661 5659 5659 5658 5655 5654 5656 5655 5656 5655 5654 5651 5648
5707 5706 5704 5703 5701 5700 5699 5697 5694 5692 5690 5690 5689 5688 5687 5685 5684 5682 5680 5677 5675 5675 5674 5673 5671 5669 5667 5665 5662 5659 5657 5654 5651 5650 5650 5646 5647 5644 5646 5648 5645 5642 5639